Location: Newark
(44.0160°N, 116.9215°W)
Time: 14:38:39
(UTC+00:00)

N. Korean satellite - Visible Passes

Search period start: 22 November 2019 00:00
Search period end: 02 December 2019 00:00
Orbit: 456 x 506 km, 97.2° (Epoch: 21 November)

Date Brightness Start Highest point End Pass type
(mag) Time Alt. Az. Time Alt. Az. Time Alt. Az.
22 Nov 8.4 01:20:10 10° SSW 01:23:34 37° W 01:27:02 10° NNW visible
22 Nov 9.8 12:45:55 10° NE 12:48:16 16° E 12:50:35 10° SE visible
23 Nov 6.8 00:54:28 10° S 00:58:08 79° WSW 01:01:52 10° NNW visible
23 Nov 6.5 13:52:47 10° N 13:56:29 73° WNW 14:00:05 10° SSW visible
24 Nov 10.1 02:05:01 10° WSW 02:06:28 12° W 02:07:54 10° WNW visible
24 Nov 7.5 13:27:27 10° NNE 13:31:04 51° E 13:34:36 10° S visible
25 Nov 9.3 01:37:52 10° SSW 01:40:51 23° W 01:43:52 10° NW visible
25 Nov 9.0 13:02:29 10° NE 13:05:34 25° E 13:08:35 10° SSE visible
26 Nov 7.9 01:11:47 10° S 01:15:20 46° W 01:18:57 10° NNW visible
26 Nov 10.0 12:38:14 10° ENE 12:39:57 13° E 12:41:39 10° ESE visible
26 Nov 6.9 14:10:06 10° N 14:13:35 43° WNW 14:17:01 10° SW visible
27 Nov 6.6 00:46:13 10° SSE 00:49:54 82° ENE 00:53:38 10° N visible
27 Nov 6.6 13:44:34 10° NNE 13:48:15 88° ESE 13:51:50 10° SSW visible
28 Nov 9.9 01:55:58 10° SW 01:58:08 15° W 02:00:19 10° NW visible
28 Nov 8.0 13:19:19 10° NNE 13:22:48 40° E 13:26:11 10° S visible
29 Nov 8.9 01:29:19 10° SSW 01:32:33 28° W 01:35:50 10° NW visible
29 Nov 9.4 12:54:29 10° NE 12:57:14 20° E 12:59:56 10° SE visible
30 Nov 7.3 01:03:24 10° S 01:07:03 59° W 01:10:45 10° NNW visible
30 Nov 10.3 12:31:27 10° E 12:31:35 10° E 12:31:43 10° E visible
30 Nov 6.6 14:01:46 10° N 14:05:20 54° WNW 14:08:50 10° SSW visible
01 Dec 6.6 00:37:59 10° SSE 00:41:39 65° ENE 00:45:22 10° N visible
01 Dec 6.9 13:36:19 10° NNE 13:39:57 69° E 13:43:29 10° S visible
